Location: Newark
(13.8117°N, 3.6025°W)
Time: 16:14:06
(UTC+00:00)

Courier 1B - Pass Details

Date: 20 August 2019
Orbit: 962 x 1209 km, 28.3° (Epoch: 18 October)

Event Time Altitude Azimuth Distance (km) Brightness Sun altitude
Rises 20:55:55 0° 299° (WNW) 3,650 11.6 -33.6°
Reaches altitude 10° 20:59:15 10° 315° (NW) 2,689 10.5 -34.3°
Maximum altitude 21:04:06 22° 4° (N) 1,964 9.2 -35.4°
Enters shadow 21:04:20 22° 7° (N) 1,966 9.2 -35.4°
